Location: Burla
(50.9568°N, 10.4983°E)
Time: 11:55:39
(UTC+00:00)

Cosmos 1763 Rocket - Pass Details

Date: 18 January 2026
Orbit: 729 x 773 km, 74.0° (Epoch: 16 February)

Event Time Altitude Azimuth Distance (km) Brightness Sun altitude
Exits shadow 04:30:54 22° 353° (N) 1,568 5.0 -24.8°
Maximum altitude 04:33:55 49° 59° (ENE) 946 4.2 -24.3°
Drops below altitude 10° 04:38:49 10° 134° (SE) 2,239 6.5 -23.5°
Sets 04:41:15 0° 140° (SE) 3,163 7.3 -23.1°
